QPF
0.05 0.05 0.06 0.08 0.10 0.09 0.10 0.11 0.10 0.09 0.09 0.07 0.05 0.05 0.07 0.07 0.06 0.05 0.04 0.04 0.04 0.06 0.10 0.15 0.18 0.20 0.24 0.23 0.20 0.18 0.15 0.12 0.08 0.07 0.05 0.03 0.03 0.02 0.02 0.02 0.02 0.02 0.01
0.04 0.05 0.05 0.07 0.07 0.07 0.07 0.08 0.08 0.08 0.09 0.09 0.07 0.06 0.07 0.07 0.05 0.05 0.05 0.05 0.05 0.06 0.12 0.18 0.21 0.24 0.26 0.25 0.21 0.19 0.17 0.12 0.09 0.09 0.07 0.05 0.04 0.04 0.03 0.03 0.02 0.02 0.02
0.05 0.05 0.05 0.05 0.05 0.05 0.05 0.06 0.08 0.10 0.09 0.08 0.08 0.09 0.09 0.07 0.06 0.06 0.06 0.07 0.08 0.08 0.10 0.14 0.17 0.20 0.23 0.24 0.23 0.22 0.19 0.16 0.13 0.10 0.09 0.08 0.06 0.06 0.06 0.06 0.05 0.03 0.02
0.06 0.05 0.05 0.04 0.05 0.05 0.05 0.06 0.09 0.12 0.12 0.10 0.10 0.10 0.08 0.07 0.07 0.07 0.06 0.06 0.07 0.06 0.07 0.08 0.10 0.15 0.20 0.24 0.26 0.27 0.25 0.21 0.17 0.13 0.11 0.10 0.08 0.07 0.06 0.07 0.07 0.06 0.04
0.05 0.04 0.05 0.04 0.04 0.05 0.05 0.05 0.08 0.09 0.11 0.11 0.09 0.09 0.08 0.07 0.06 0.05 0.04 0.04 0.06 0.06 0.06 0.08 0.09 0.11 0.14 0.19 0.24 0.28 0.29 0.27 0.22 0.18 0.16 0.14 0.11 0.09 0.08 0.07 0.07 0.06 0.06
0.03 0.03 0.04 0.03 0.03 0.04 0.05 0.05 0.06 0.07 0.07 0.07 0.07 0.08 0.08 0.07 0.05 0.05 0.03 0.04 0.05 0.06 0.07 0.07 0.09 0.09 0.10 0.15 0.21 0.30 0.34 0.32 0.28 0.24 0.22 0.18 0.15 0.12 0.09 0.08 0.08 0.08 0.07
0.03 0.02 0.02 0.03 0.04 0.05 0.06 0.06 0.06 0.06 0.06 0.05 0.05 0.06 0.05 0.04 0.04 0.03 0.03 0.03 0.04 0.05 0.06 0.07 0.08 0.07 0.08 0.10 0.17 0.29 0.31 0.33 0.32 0.30 0.27 0.24 0.21 0.17 0.14 0.10 0.08 0.07 0.06
0.03 0.02 0.02 0.03 0.04 0.04 0.06 0.06 0.05 0.06 0.06 0.05 0.06 0.07 0.06 0.04 0.04 0.02 0.02 0.03 0.03 0.04 0.05 0.06 0.07 0.07 0.07 0.09 0.13 0.18 0.20 0.24 0.30 0.36 0.38 0.33 0.28 0.21 0.17 0.14 0.11 0.10 0.09
0.02 0.02 0.01 0.03 0.04 0.05 0.06 0.08 0.06 0.05 0.06 0.05 0.06 0.08 0.08 0.07 0.05 0.04 0.03 0.03 0.03 0.04 0.05 0.05 0.06 0.08 0.08 0.09 0.11 0.14 0.17 0.19 0.23 0.31 0.39 0.41 0.36 0.30 0.25 0.22 0.19 0.17 0.15
0.02 0.02 0.02 0.02 0.04 0.05 0.05 0.06 0.06 0.05 0.07 0.07 0.06 0.06 0.07 0.07 0.07 0.06 0.04 0.04 0.03 0.03 0.04 0.04 0.05 0.07 0.09 0.11 0.12 0.14 0.15 0.15 0.20 0.28 0.38 0.43 0.39 0.36 0.35 0.36 0.37 0.35 0.28
0.02 0.02 0.02 0.02 0.03 0.04 0.03 0.03 0.05 0.05 0.06 0.08 0.08 0.07 0.06 0.07 0.07 0.08 0.07 0.05 0.03 0.03 0.04 0.05 0.07 0.09 0.09 0.10 0.11 0.12 0.13 0.13 0.14 0.21 0.32 0.43 0.46 0.40 0.35 0.35 0.33 0.30 0.27
0.02 0.01 0.01 0.02 0.02 0.03 0.04 0.04 0.04 0.04 0.04 0.05 0.06 0.07 0.08 0.09 0.09 0.09 0.09 0.07 0.05 0.04 0.03 0.04 0.06 0.07 0.09 0.11 0.12 0.15 0.15 0.15 0.15 0.16 0.21 0.27 0.30 0.34 0.36 0.34 0.30 0.26 0.23
0.02 0.02 0.02 0.03 0.02 0.02 0.02 0.03 0.03 0.03 0.02 0.02 0.04 0.06 0.08 0.09 0.09 0.09 0.08 0.07 0.06 0.05 0.04 0.04 0.07 0.09 0.10 0.10 0.12 0.15 0.14 0.14 0.15 0.16 0.19 0.21 0.24 0.27 0.30 0.29 0.28 0.24 0.19
0.03 0.04 0.03 0.02 0.02 0.01 0.01 0.01 0.02 0.03 0.03 0.02 0.02 0.02 0.04 0.06 0.09 0.10 0.08 0.07 0.07 0.06 0.05 0.05 0.07 0.08 0.11 0.12 0.13 0.15 0.13 0.14 0.15 0.18 0.22 0.23 0.23 0.21 0.21 0.21 0.21 0.19 0.16
0.07 0.08 0.06 0.03 0.02 0.01 0.01 0.01 0.01 0.01 0.01 0.01 0.02 0.02 0.03 0.03 0.06 0.08 0.08 0.07 0.07 0.07 0.05 0.05 0.07 0.09 0.11 0.12 0.13 0.11 0.13 0.16 0.16 0.17 0.17 0.17 0.17 0.17 0.17 0.17 0.16 0.14 0.13
0.04 0.04 0.04 0.03 0.02 0.01 0.01 0.01 0.01 0.01 0.01 0.01 0.02 0.02 0.02 0.02 0.04 0.05 0.05 0.04 0.06 0.07 0.06 0.05 0.05 0.07 0.09 0.11 0.14 0.12 0.12 0.15 0.15 0.14 0.14 0.13 0.12 0.13 0.12 0.12 0.12 0.12 0.13
0.02 0.02 0.02 0.02 0.02 0.01 0.01 0.01 0.01 0.01 0.01 0.02 0.02 0.03 0.04 0.03 0.03 0.03 0.04 0.03 0.04 0.04 0.05 0.04 0.04 0.06 0.07 0.10 0.12 0.11 0.11 0.10 0.11 0.12 0.12 0.10 0.10 0.10 0.08 0.09 0.11 0.12 0.12
0.01 0.02 0.01 0.02 0.01 0.01 0.01 0.01 0.03 0.03 0.02 0.02 0.02 0.04 0.04 0.04 0.04 0.03 0.02 0.02 0.02 0.03 0.03 0.04 0.06 0.07 0.07 0.08 0.10 0.10 0.09 0.08 0.08 0.10 0.10 0.11 0.10 0.09 0.09 0.09 0.10 0.11 0.12
0.01 0.01 0.01 0.01 0.01 0.01 0.01 0.01 0.02 0.02 0.03 0.02 0.04 0.05 0.04 0.04 0.04 0.04 0.04 0.03 0.03 0.04 0.05 0.06 0.07 0.07 0.07 0.08 0.08 0.10 0.09 0.07 0.06 0.08 0.10 0.11 0.10 0.09 0.09 0.08 0.09 0.09 0.10
0.01 0.01 0.01 0.01 0.01 0.01 0.02 0.02 0.03 0.03 0.03 0.03 0.04 0.06 0.06 0.04 0.03 0.03 0.03 0.04 0.04 0.06 0.08 0.08 0.09 0.08 0.07 0.07 0.07 0.07 0.09 0.07 0.06 0.06 0.07 0.08 0.08 0.07 0.07 0.07 0.07 0.07 0.07
0.00 0.00 0.00 0.00 0.01 0.01 0.02 0.03 0.03 0.03 0.03 0.03 0.04 0.06 0.06 0.06 0.03 0.02 0.03 0.04 0.06 0.07 0.08 0.08 0.09 0.08 0.06 0.06 0.06 0.06 0.07 0.08 0.06 0.06 0.06 0.07 0.07 0.06 0.05 0.06 0.07 0.07 0.07
0.01 0.00 0.00 0.00 0.01 0.01 0.01 0.02 0.03 0.03 0.04 0.04 0.04 0.04 0.05 0.07 0.06 0.05 0.05 0.06 0.07 0.07 0.08 0.08 0.08 0.07 0.06 0.05 0.05 0.04 0.05 0.07 0.08 0.06 0.05 0.06 0.06 0.07 0.06 0.05 0.05 0.04 0.04
0.01 0.01 0.01 0.01 0.01 0.01 0.01 0.02 0.04 0.04 0.04 0.04 0.04 0.05 0.05 0.07 0.09 0.08 0.08 0.07 0.07 0.07 0.07 0.07 0.06 0.05 0.04 0.04 0.03 0.04 0.05 0.05 0.06 0.07 0.06 0.07 0.06 0.07 0.06 0.05 0.04 0.03 0.02
0.01 0.01 0.01 0.01 0.01 0.02 0.02 0.03 0.04 0.04 0.04 0.04 0.04 0.04 0.05 0.06 0.08 0.08 0.07 0.07 0.06 0.06 0.06 0.05 0.05 0.04 0.04 0.03 0.03 0.03 0.04 0.04 0.04 0.04 0.04 0.05 0.05 0.04 0.03 0.03 0.02 0.02 0.01
0.01 0.01 0.00 0.01 0.01 0.03 0.04 0.03 0.04 0.04 0.04 0.03 0.03 0.03 0.03 0.04 0.06 0.08 0.07 0.06 0.05 0.05 0.05 0.04 0.04 0.03 0.02 0.02 0.02 0.02 0.02 0.02 0.03 0.04 0.03 0.03 0.03 0.03 0.03 0.02 0.01 0.01 0.01
0.01 0.01 0.01 0.01 0.01 0.02 0.02 0.03 0.03 0.03 0.03 0.03 0.03 0.03 0.03 0.03 0.05 0.05 0.06 0.05 0.04 0.04 0.03 0.03 0.03 0.04 0.03 0.02 0.01 0.02 0.02 0.02 0.02 0.03 0.03 0.02 0.03 0.02 0.03 0.02 0.01 0.01 0.00
MSLP
1018.30 1018.29 1018.24 1018.18 1018.14 1018.15 1018.20 1018.29 1018.40 1018.49 1018.53 1018.51 1018.42 1018.31 1018.19 1018.12 1018.12 1018.23 1018.44 1018.73 1019.06 1019.41 1019.74 1020.02 1020.25 1020.44 1020.61 1020.77 1020.95 1021.14 1021.35 1021.57 1021.77 1021.95 1022.10 1022.24 1022.36 1022.47 1022.60 1022.75 1022.91 1023.08 1023.26
1018.37 1018.30 1018.19 1018.08 1018.00 1017.97 1018.01 1018.10 1018.22 1018.35 1018.43 1018.46 1018.43 1018.35 1018.26 1018.19 1018.17 1018.23 1018.37 1018.58 1018.83 1019.10 1019.37 1019.61 1019.83 1020.03 1020.22 1020.42 1020.64 1020.87 1021.12 1021.36 1021.59 1021.79 1021.96 1022.11 1022.24 1022.37 1022.52 1022.68 1022.87 1023.07 1023.28
1018.49 1018.36 1018.20 1018.04 1017.92 1017.87 1017.90 1018.00 1018.15 1018.30 1018.43 1018.50 1018.51 1018.47 1018.39 1018.32 1018.27 1018.28 1018.35 1018.48 1018.65 1018.84 1019.05 1019.25 1019.44 1019.63 1019.83 1020.05 1020.28 1020.54 1020.81 1021.07 1021.31 1021.53 1021.72 1021.89 1022.05 1022.21 1022.39 1022.59 1022.83 1023.08 1023.34
1018.66 1018.47 1018.25 1018.04 1017.89 1017.82 1017.84 1017.95 1018.11 1018.28 1018.44 1018.54 1018.59 1018.57 1018.51 1018.43 1018.36 1018.33 1018.34 1018.41 1018.51 1018.65 1018.79 1018.95 1019.11 1019.28 1019.46 1019.67 1019.90 1020.14 1020.40 1020.66 1020.90 1021.13 1021.33 1021.53 1021.73 1021.94 1022.18 1022.45 1022.74 1023.07 1023.40
1018.88 1018.62 1018.34 1018.08 1017.90 1017.80 1017.80 1017.90 1018.05 1018.23 1018.40 1018.52 1018.58 1018.58 1018.53 1018.46 1018.39 1018.34 1018.33 1018.36 1018.42 1018.51 1018.62 1018.74 1018.86 1018.99 1019.13 1019.29 1019.47 1019.67 1019.88 1020.10 1020.32 1020.54 1020.77 1021.00 1021.25 1021.54 1021.86 1022.22 1022.62 1023.03 1023.46
1019.12 1018.79 1018.45 1018.15 1017.92 1017.78 1017.76 1017.82 1017.95 1018.11 1018.27 1018.38 1018.45 1018.46 1018.42 1018.37 1018.31 1018.28 1018.27 1018.30 1018.36 1018.44 1018.53 1018.62 1018.70 1018.78 1018.85 1018.94 1019.03 1019.15 1019.28 1019.43 1019.60 1019.81 1020.04 1020.31 1020.63 1021.01 1021.44 1021.92 1022.44 1022.98 1023.51
1019.40 1019.00 1018.59 1018.23 1017.95 1017.77 1017.70 1017.71 1017.80 1017.92 1018.04 1018.13 1018.19 1018.20 1018.19 1018.17 1018.15 1018.15 1018.19 1018.25 1018.34 1018.43 1018.52 1018.59 1018.63 1018.65 1018.65 1018.63 1018.62 1018.62 1018.64 1018.70 1018.81 1018.98 1019.22 1019.54 1019.94 1020.42 1020.98 1021.59 1022.25 1022.91 1023.57
1019.70 1019.23 1018.76 1018.35 1018.01 1017.78 1017.64 1017.60 1017.62 1017.68 1017.75 1017.81 1017.85 1017.87 1017.88 1017.89 1017.93 1017.99 1018.08 1018.20 1018.33 1018.46 1018.56 1018.63 1018.64 1018.60 1018.52 1018.40 1018.27 1018.14 1018.05 1018.01 1018.05 1018.18 1018.43 1018.79 1019.28 1019.87 1020.55 1021.30 1022.09 1022.88 1023.64
1020.00 1019.48 1018.96 1018.50 1018.11 1017.82 1017.62 1017.50 1017.45 1017.44 1017.46 1017.48 1017.50 1017.52 1017.55 1017.61 1017.69 1017.82 1017.97 1018.16 1018.34 1018.52 1018.65 1018.72 1018.72 1018.64 1018.49 1018.29 1018.05 1017.81 1017.61 1017.48 1017.45 1017.56 1017.81 1018.22 1018.78 1019.47 1020.26 1021.13 1022.03 1022.92 1023.76
1020.29 1019.73 1019.18 1018.68 1018.25 1017.90 1017.64 1017.45 1017.33 1017.26 1017.21 1017.19 1017.19 1017.21 1017.26 1017.35 1017.48 1017.66 1017.88 1018.12 1018.36 1018.59 1018.76 1018.86 1018.86 1018.77 1018.58 1018.32 1018.02 1017.71 1017.43 1017.23 1017.16 1017.24 1017.50 1017.95 1018.56 1019.33 1020.20 1021.15 1022.12 1023.07 1023.95
1020.53 1019.96 1019.40 1018.87 1018.41 1018.02 1017.70 1017.45 1017.27 1017.13 1017.04 1016.98 1016.96 1016.98 1017.04 1017.15 1017.31 1017.53 1017.79 1018.08 1018.37 1018.64 1018.86 1019.00 1019.04 1018.97 1018.79 1018.53 1018.20 1017.86 1017.56 1017.33 1017.24 1017.32 1017.59 1018.06 1018.71 1019.51 1020.43 1021.41 1022.40 1023.34 1024.21
1020.71 1020.15 1019.59 1019.06 1018.58 1018.15 1017.78 1017.48 1017.24 1017.06 1016.93 1016.84 1016.80 1016.81 1016.88 1017.00 1017.18 1017.41 1017.70 1018.01 1018.34 1018.65 1018.93 1019.13 1019.23 1019.22 1019.11 1018.90 1018.62 1018.31 1018.02 1017.81 1017.73 1017.82 1018.10 1018.57 1019.23 1020.03 1020.94 1021.90 1022.84 1023.74 1024.55
1020.83 1020.29 1019.74 1019.21 1018.71 1018.26 1017.86 1017.51 1017.23 1017.01 1016.85 1016.74 1016.69 1016.69 1016.75 1016.87 1017.04 1017.28 1017.57 1017.91 1018.26 1018.62 1018.96 1019.24 1019.44 1019.54 1019.53 1019.42 1019.24 1019.01 1018.79 1018.63 1018.59 1018.69 1018.97 1019.43 1020.07 1020.83 1021.68 1022.57 1023.43 1024.23 1024.93
1020.90 1020.39 1019.86 1019.33 1018.82 1018.34 1017.91 1017.53 1017.21 1016.96 1016.77 1016.65 1016.58 1016.57 1016.62 1016.73 1016.90 1017.13 1017.42 1017.76 1018.14 1018.55 1018.96 1019.34 1019.66 1019.89 1020.03 1020.06 1020.01 1019.90 1019.78 1019.69 1019.69 1019.82 1020.09 1020.53 1021.10 1021.80 1022.56 1023.33 1024.08 1024.75 1025.33
1020.97 1020.48 1019.96 1019.43 1018.90 1018.40 1017.94 1017.53 1017.18 1016.90 1016.69 1016.55 1016.48 1016.46 1016.50 1016.59 1016.74 1016.95 1017.24 1017.59 1018.00 1018.46 1018.95 1019.43 1019.88 1020.27 1020.57 1020.76 1020.86 1020.89 1020.88 1020.87 1020.91 1021.05 1021.31 1021.69 1022.20 1022.79 1023.44 1024.10 1024.71 1025.26 1025.70
1021.07 1020.59 1020.07 1019.54 1018.99 1018.46 1017.97 1017.53 1017.16 1016.86 1016.63 1016.48 1016.39 1016.36 1016.38 1016.46 1016.59 1016.80 1017.07 1017.43 1017.88 1018.39 1018.96 1019.55 1020.13 1020.66 1021.12 1021.47 1021.71 1021.86 1021.95 1022.01 1022.08 1022.22 1022.44 1022.76 1023.18 1023.67 1024.21 1024.74 1025.24 1025.66 1026.00
1021.24 1020.76 1020.24 1019.69 1019.13 1018.58 1018.06 1017.60 1017.20 1016.89 1016.64 1016.48 1016.38 1016.33 1016.34 1016.40 1016.52 1016.71 1016.98 1017.35 1017.82 1018.39 1019.02 1019.71 1020.40 1021.05 1021.63 1022.10 1022.46 1022.71 1022.86 1022.96 1023.05 1023.16 1023.33 1023.59 1023.92 1024.31 1024.74 1025.18 1025.57 1025.91 1026.18
1021.48 1021.01 1020.48 1019.92 1019.34 1018.78 1018.25 1017.77 1017.36 1017.03 1016.78 1016.60 1016.48 1016.42 1016.42 1016.46 1016.57 1016.75 1017.02 1017.39 1017.88 1018.48 1019.16 1019.91 1020.67 1021.41 1022.07 1022.62 1023.05 1023.35 1023.54 1023.64 1023.71 1023.78 1023.90 1024.08 1024.32 1024.63 1024.98 1025.34 1025.68 1025.97 1026.20
1021.79 1021.31 1020.78 1020.22 1019.65 1019.08 1018.55 1018.07 1017.66 1017.33 1017.07 1016.88 1016.75 1016.68 1016.66 1016.69 1016.78 1016.95 1017.21 1017.58 1018.07 1018.68 1019.38 1020.15 1020.94 1021.70 1022.39 1022.97 1023.42 1023.73 1023.91 1023.99 1024.02 1024.05 1024.10 1024.21 1024.39 1024.63 1024.92 1025.23 1025.54 1025.81 1026.03
1022.11 1021.64 1021.13 1020.58 1020.03 1019.48 1018.97 1018.51 1018.11 1017.78 1017.52 1017.33 1017.20 1017.11 1017.08 1017.09 1017.16 1017.31 1017.56 1017.91 1018.38 1018.97 1019.65 1020.40 1021.17 1021.91 1022.58 1023.14 1023.55 1023.83 1023.98 1024.02 1024.00 1023.97 1023.97 1024.02 1024.14 1024.33 1024.58 1024.87 1025.17 1025.44 1025.68
1022.39 1021.95 1021.46 1020.95 1020.44 1019.93 1019.46 1019.03 1018.66 1018.36 1018.11 1017.93 1017.79 1017.70 1017.65 1017.65 1017.70 1017.83 1018.04 1018.36 1018.78 1019.32 1019.95 1020.63 1021.34 1022.01 1022.62 1023.11 1023.47 1023.69 1023.78 1023.78 1023.71 1023.63 1023.58 1023.58 1023.66 1023.82 1024.04 1024.31 1024.60 1024.88 1025.13
1022.60 1022.19 1021.75 1021.30 1020.84 1020.40 1019.98 1019.60 1019.28 1019.00 1018.78 1018.61 1018.48 1018.38 1018.33 1018.31 1018.34 1018.43 1018.61 1018.87 1019.24 1019.70 1020.23 1020.83 1021.43 1022.01 1022.52 1022.93 1023.21 1023.37 1023.41 1023.36 1023.25 1023.14 1023.05 1023.02 1023.06 1023.18 1023.38 1023.62 1023.90 1024.17 1024.41
1022.72 1022.36 1021.98 1021.59 1021.21 1020.83 1020.49 1020.17 1019.89 1019.66 1019.46 1019.31 1019.19 1019.10 1019.03 1019.00 1019.01 1019.07 1019.20 1019.41 1019.70 1020.06 1020.50 1020.98 1021.47 1021.93 1022.33 1022.64 1022.85 1022.95 1022.95 1022.86 1022.74 1022.60 1022.49 1022.44 1022.45 1022.54 1022.69 1022.90 1023.13 1023.37 1023.58
1022.78 1022.47 1022.16 1021.85 1021.54 1021.24 1020.95 1020.70 1020.47 1020.27 1020.11 1019.98 1019.87 1019.78 1019.72 1019.68 1019.67 1019.70 1019.78 1019.93 1020.14 1020.41 1020.73 1021.09 1021.46 1021.81 1022.10 1022.33 1022.47 1022.52 1022.49 1022.40 1022.27 1022.13 1022.01 1021.94 1021.92 1021.97 1022.07 1022.21 1022.38 1022.54 1022.70
1022.83 1022.59 1022.34 1022.10 1021.86 1021.62 1021.40 1021.19 1021.01 1020.84 1020.70 1020.59 1020.49 1020.41 1020.34 1020.29 1020.27 1020.28 1020.32 1020.41 1020.54 1020.73 1020.95 1021.20 1021.46 1021.70 1021.91 1022.06 1022.15 1022.17 1022.13 1022.04 1021.92 1021.79 1021.67 1021.58 1021.54 1021.53 1021.56 1021.62 1021.69 1021.77 1021.83
1022.92 1022.74 1022.57 1022.39 1022.21 1022.03 1021.86 1021.68 1021.52 1021.38 1021.25 1021.13 1021.04 1020.95 1020.89 1020.83 1020.80 1020.79 1020.80 1020.85 1020.93 1021.04 1021.17 1021.33 1021.50 1021.65 1021.78 1021.88 1021.93 1021.94 1021.90 1021.82 1021.72 1021.60 1021.49 1021.38 1021.30 1021.23 1021.19 1021.16 1021.13 1021.09 1021.05
Thickness
5715 5716 5715 5715 5716 5716 5717 5717 5718 5717 5718 5719 5720 5720 5720 5720 5720 5720 5720 5717 5715 5714 5713 5711 5710 5709 5708 5707 5706 5705 5704 5703 5703 5702 5701 5701 5700 5699 5699 5698 5697 5696 5695
5709 5709 5709 5709 5710 5711 5711 5712 5712 5712 5713 5714 5714 5715 5715 5715 5715 5714 5716 5715 5713 5712 5711 5710 5709 5707 5707 5705 5704 5703 5702 5702 5701 5700 5699 5699 5698 5697 5696 5695 5694 5693 5692
5702 5703 5704 5704 5705 5705 5705 5706 5707 5707 5707 5709 5710 5710 5710 5710 5711 5711 5711 5711 5711 5709 5709 5707 5706 5705 5705 5703 5702 5701 5701 5700 5699 5698 5697 5696 5695 5695 5694 5693 5691 5690 5689
5694 5696 5698 5699 5698 5699 5700 5701 5702 5702 5702 5702 5703 5705 5705 5705 5706 5706 5706 5706 5707 5707 5707 5705 5703 5703 5703 5702 5701 5699 5699 5698 5697 5696 5695 5694 5693 5692 5691 5690 5689 5687 5685
5688 5690 5691 5691 5692 5693 5694 5696 5697 5695 5696 5696 5697 5698 5700 5701 5701 5702 5702 5702 5702 5702 5702 5702 5700 5700 5700 5699 5698 5697 5697 5696 5695 5694 5693 5692 5690 5689 5688 5687 5685 5683 5682
5681 5683 5685 5684 5686 5687 5687 5687 5687 5687 5689 5689 5692 5694 5695 5696 5697 5697 5697 5697 5696 5697 5697 5698 5697 5697 5696 5696 5696 5695 5694 5693 5692 5691 5690 5689 5688 5686 5685 5683 5681 5680 5677
5674 5675 5678 5677 5678 5679 5679 5680 5680 5681 5682 5683 5685 5687 5690 5692 5691 5691 5691 5691 5691 5691 5691 5691 5691 5692 5692 5692 5692 5691 5691 5691 5690 5689 5687 5686 5684 5683 5681 5679 5677 5675 5673
5666 5668 5667 5670 5670 5670 5671 5671 5671 5673 5675 5676 5676 5678 5680 5683 5683 5685 5684 5683 5683 5684 5684 5684 5684 5685 5686 5687 5686 5686 5686 5686 5686 5686 5684 5682 5680 5679 5677 5675 5673 5671 5668
5658 5658 5659 5660 5661 5663 5663 5662 5663 5664 5666 5668 5669 5670 5671 5672 5675 5676 5675 5675 5675 5676 5676 5676 5677 5677 5678 5679 5680 5680 5680 5681 5681 5681 5680 5678 5676 5675 5673 5671 5669 5666 5663
5649 5649 5650 5651 5652 5654 5654 5655 5656 5656 5657 5659 5662 5663 5664 5665 5664 5665 5667 5667 5666 5666 5667 5668 5669 5669 5670 5671 5671 5672 5673 5674 5675 5675 5674 5673 5673 5671 5668 5665 5663 5659 5656
5639 5639 5640 5641 5642 5644 5644 5645 5646 5648 5650 5650 5652 5654 5656 5658 5659 5658 5657 5656 5656 5657 5658 5658 5659 5661 5661 5662 5663 5664 5666 5667 5667 5667 5666 5665 5665 5664 5660 5657 5655 5651 5648
5630 5629 5631 5631 5632 5633 5634 5636 5637 5640 5640 5641 5643 5645 5646 5648 5650 5651 5649 5648 5647 5647 5648 5649 5650 5652 5652 5653 5653 5655 5657 5658 5659 5658 5657 5656 5655 5654 5652 5649 5646 5643 5639
5620 5619 5619 5620 5621 5622 5624 5626 5628 5630 5631 5632 5633 5636 5638 5640 5642 5642 5642 5641 5639 5638 5639 5640 5641 5642 5643 5644 5644 5645 5646 5647 5648 5648 5647 5646 5644 5643 5641 5639 5637 5633 5630
5609 5607 5608 5609 5610 5612 5614 5615 5619 5620 5621 5622 5624 5626 5629 5632 5633 5634 5635 5635 5633 5632 5632 5632 5632 5632 5633 5634 5634 5635 5636 5636 5637 5637 5635 5635 5633 5632 5631 5629 5626 5623 5620
5598 5597 5597 5598 5599 5600 5603 5605 5608 5610 5612 5614 5616 5618 5620 5623 5625 5627 5629 5630 5629 5627 5625 5623 5623 5623 5623 5623 5624 5625 5625 5625 5625 5625 5624 5623 5622 5621 5619 5617 5614 5613 5610
5588 5587 5588 5589 5589 5591 5593 5596 5599 5600 5602 5605 5607 5609 5611 5615 5616 5618 5621 5622 5623 5623 5618 5615 5614 5613 5614 5614 5614 5614 5614 5614 5614 5614 5613 5612 5611 5609 5608 5605 5604 5602 5599
5580 5580 5580 5580 5581 5583 5584 5586 5589 5591 5594 5596 5598 5601 5602 5605 5609 5611 5614 5616 5617 5616 5612 5606 5605 5604 5604 5605 5605 5605 5605 5605 5604 5603 5603 5601 5600 5599 5598 5596 5594 5592 5589
5573 5573 5573 5573 5574 5575 5576 5578 5580 5583 5585 5587 5590 5592 5595 5598 5600 5603 5605 5607 5607 5607 5604 5600 5597 5597 5595 5595 5596 5596 5596 5596 5595 5593 5593 5592 5591 5590 5588 5586 5585 5583 5580
5566 5566 5566 5567 5566 5567 5568 5570 5572 5575 5577 5579 5581 5584 5587 5589 5592 5594 5596 5598 5598 5597 5596 5594 5590 5588 5587 5587 5587 5588 5588 5587 5587 5585 5584 5583 5582 5581 5579 5578 5576 5574 5572
5559 5559 5559 5559 5559 5560 5561 5562 5565 5567 5569 5570 5573 5575 5578 5581 5583 5585 5587 5588 5588 5588 5587 5587 5584 5583 5581 5580 5581 5582 5581 5581 5581 5580 5578 5577 5575 5573 5572 5571 5569 5567 5564
5554 5553 5553 5553 5552 5553 5552 5553 5557 5560 5561 5563 5565 5567 5568 5569 5571 5575 5579 5579 5581 5582 5582 5581 5579 5578 5576 5575 5576 5576 5575 5574 5573 5574 5574 5573 5572 5570 5568 5566 5563 5561 5558
5549 5549 5548 5547 5547 5545 5542 5544 5548 5552 5555 5556 5558 5560 5561 5562 5563 5565 5567 5569 5572 5575 5575 5575 5574 5573 5571 5570 5569 5570 5571 5571 5570 5569 5570 5570 5570 5568 5567 5564 5560 5557 5554
5543 5543 5542 5542 5541 5538 5537 5538 5541 5546 5548 5549 5551 5553 5556 5557 5560 5561 5561 5562 5564 5564 5566 5569 5568 5567 5566 5565 5564 5565 5564 5565 5565 5565 5566 5566 5566 5565 5562 5560 5556 5553 5550
5538 5538 5537 5537 5537 5534 5532 5534 5536 5541 5543 5543 5545 5547 5549 5551 5553 5555 5559 5560 5560 5560 5561 5562 5562 5562 5561 5559 5559 5560 5560 5561 5562 5562 5562 5563 5563 5561 5561 5557 5553 5550 5547
5535 5534 5533 5533 5533 5530 5528 5530 5532 5539 5539 5540 5541 5542 5544 5546 5544 5548 5554 5555 5556 5555 5554 5554 5554 5554 5554 5554 5554 5558 5560 5561 5560 5560 5560 5560 5559 5559 5558 5556 5552 5549 5546
5534 5533 5531 5531 5530 5528 5525 5526 5528 5537 5538 5539 5539 5539 5537 5539 5540 5543 5549 5551 5552 5552 5553 5553 5551 5551 5552 5552 5551 5553 5557 5559 5559 5558 5557 5556 5556 5556 5555 5555 5553 5550 5547